User: anonymous   Login
Location: Lake Runnemede Observatory
(43.4843°N, 72.3851°W)
Time: 22:25:33
(UTC-04:00)
Language:

SPOT 5 - Orbit

View from above orbital plane
View from above orbital plane
View from above satellite
View from above satellite

Ground track
Ground track

The orbit data is extracted from the following two-line orbital elements,

1 27421U 02021A   17146.50517996 +.00000040 +00000-0 +20310-4 0  9996
2 27421 098.4073 209.7749 0136073 035.3894 325.6242 14.51861413782521
Epoch (UTC): 26 May 2017 12:07:27
Eccentricity: 0.0136073
inclination: 98.4073°
perigee height: 623 km
apogee height: 816 km
right ascension of ascending node: 209.7749°
argument of perigee: 35.3894°
revolutions per day: 14.51861413
mean anomaly at epoch: 325.6242°
orbit number at epoch: 78252

The dashed part of the orbit path shows where the satellite is in the earth's shadow,  

DLR